Location: La Sioule Rivi�re
(46.3664°N, 3.3197°E)
Time: 12:19:24
(UTC+00:00)

Cosmos 1656 - Pass Details

Date: 29 October 2020
Orbit: 796 x 851 km, 71.1° (Epoch: 23 November)

Event Time Altitude Azimuth Distance (km) Brightness Sun altitude
Rises 18:15:30 0° 216° (SW) 3,340 7.4 -17.7°
Reaches altitude 10° 18:17:56 10° 220° (SW) 2,420 6.6 -18.1°
Maximum altitude 18:23:25 60° 300° (WNW) 953 4.2 -19.0°
Drops below altitude 10° 18:29:01 10° 21° (NNE) 2,470 5.9 -20.0°
Enters shadow 18:30:42 - 24° (NNE) 3,095 6.4 -20.3°
